Civil Air Patrol

Glenn L. Martin Composite Squadron

Welcome to the Glenn L. Martin Composite Squadron Civil Air Patrol

 

We are the official auxiliary of the United States Air Force.

Our 3 main missions are cadet programs, aerospace education and emergency services.

Click each link to learn more about each mission.

 

Here is a short video from National Headquarters about CAP

 

 


 

 
Current METAR for KMTN (Martin State Airport)

KMTN 201650Z 14007KT 10SM OVC250 10/M04 A3039

 

Current TAF for KBWI (Baltimore Washington International)

TAF KBWI 201734Z 2018/2124 14007G16KT P6SM BKN150 FM210400 08005KT P6SM BKN025 OVC050 FM210600 05005KT 5SM -RA SCT008 BKN015 OVC050 FM210900 08005KT 3SM RA OVC007 FM211600 09007KT 5SM -RA OVC015